Location: Betpouey
(42.8833°N, 0.0333°E)
Time: 21:55:33
(UTC+00:00)

Cosmos 1656 Rocket - Pass Details

Date: 01 December 2020
Orbit: 796 x 846 km, 71.1° (Epoch: 18 January)

Event Time Altitude Azimuth Distance (km) Brightness Sun altitude
Rises 18:46:42 0° 333° (NNW) 3,400 7.1 -25.0°
Reaches altitude 10° 18:49:11 10° 331° (NNW) 2,456 6.3 -25.5°
Maximum altitude 18:54:46 68° 249° (WSW) 889 3.9 -26.5°
Enters shadow 18:59:14 16° 169° (S) 2,030 5.6 -27.3°
